Hourly Weather Bolshie Lomy

Today, 20 June, Sunday

Time Temperature Precipitation Wind Pressure Humidity
00:00 +17°C° 0 mm 2 mps 748 mmHg 90%
01:00 +17°C° 0 mm 2 mps 748 mmHg 91%
02:00 +18°C° 0 mm 1 mps 748 mmHg 93%
03:00 +18°C° 0 mm 1 mps 748 mmHg 92%
04:00 +19°C° 0 mm 1 mps 748 mmHg 91%
05:00 +20°C° 0 mm 1 mps 748 mmHg 90%
06:00 +21°C° 0 mm 1 mps 748 mmHg 84%
07:00 +23°C° 0 mm 1 mps 748 mmHg 77%
08:00 +25°C° 0 mm 1 mps 748 mmHg 71%
09:00 +26°C° 0 mm 1 mps 748 mmHg 66%
10:00 +27°C° 0 mm 1 mps 747 mmHg 61%
11:00 +29°C° 0 mm 1 mps 747 mmHg 56%
12:00 +29°C° 0 mm 1 mps 747 mmHg 54%
13:00 +30°C° 0 mm 1 mps 747 mmHg 51%
14:00 +30°C° 0 mm 1 mps 747 mmHg 49%
15:00 +30°C° 0 mm 1 mps 746 mmHg 52%
16:00 +30°C° 0 mm 1 mps 746 mmHg 55%
17:00 +30°C° 0 mm 1 mps 746 mmHg 58%
18:00 +27°C° 0 mm 1 mps 746 mmHg 65%
19:00 +25°C° 0 mm 2 mps 746 mmHg 73%
20:00 +23°C° 0 mm 2 mps 746 mmHg 80%
21:00 +21°C° 0 mm 2 mps 746 mmHg 82%
22:00 +20°C° 0 mm 2 mps 746 mmHg 83%
23:00 +19°C° 0 mm 2 mps 746 mmHg 85%

Tomorrow, 21 June, Monday

Time Temperature Precipitation Wind Pressure Humidity
00:00 +19°C° 0 mm 2 mps 746 mmHg 86%
01:00 +18°C° 0 mm 2 mps 746 mmHg 88%
02:00 +18°C° 0 mm 2 mps 746 mmHg 89%
03:00 +18°C° 0 mm 2 mps 746 mmHg 88%
04:00 +18°C° 0 mm 2 mps 746 mmHg 87%
05:00 +20°C° 0 mm 1 mps 746 mmHg 87%
06:00 +20°C° 0 mm 2 mps 746 mmHg 81%
07:00 +23°C° 0 mm 2 mps 747 mmHg 75%
08:00 +24°C° 0 mm 2 mps 747 mmHg 69%
09:00 +26°C° 0 mm 2 mps 746 mmHg 63%
10:00 +27°C° 0 mm 2 mps 746 mmHg 57%
11:00 +28°C° 0 mm 3 mps 746 mmHg 51%
12:00 +29°C° 0 mm 3 mps 746 mmHg 49%
13:00 +29°C° 0 mm 2 mps 746 mmHg 47%
14:00 +30°C° 0 mm 2 mps 746 mmHg 44%
15:00 +30°C° 0 mm 2 mps 746 mmHg 49%
16:00 +29°C° 0 mm 2 mps 745 mmHg 53%
17:00 +29°C° 0 mm 2 mps 745 mmHg 57%
18:00 +27°C° 0 mm 2 mps 745 mmHg 65%
19:00 +25°C° 0 mm 2 mps 745 mmHg 73%
20:00 +23°C° 0 mm 2 mps 745 mmHg 81%
21:00 +21°C° 0 mm 2 mps 745 mmHg 85%
22:00 +20°C° 0 mm 2 mps 745 mmHg 89%
23:00 +19°C° 0 mm 2 mps 745 mmHg 93%

Day after tomorrow, 22 June, Tuesday

Time Temperature Precipitation Wind Pressure Humidity
00:00 +19°C° 0 mm 2 mps 745 mmHg 94%
01:00 +19°C° 0 mm 2 mps 745 mmHg 95%
02:00 +19°C° 0 mm 2 mps 746 mmHg 96%
03:00 +19°C° 0 mm 2 mps 746 mmHg 95%
04:00 +20°C° 0 mm 2 mps 746 mmHg 94%
05:00 +20°C° 0 mm 2 mps 746 mmHg 93%
06:00 +23°C° 0 mm 2 mps 746 mmHg 85%
07:00 +25°C° 0 mm 3 mps 746 mmHg 76%
08:00 +27°C° 0 mm 3 mps 746 mmHg 68%
09:00 +28°C° 0 mm 3 mps 746 mmHg 61%
10:00 +29°C° 0 mm 3 mps 746 mmHg 55%
11:00 +32°C° 0 mm 4 mps 746 mmHg 48%
12:00 +31°C° 0 mm 3 mps 746 mmHg 47%
13:00 +33°C° 0 mm 3 mps 746 mmHg 45%
14:00 +33°C° 0 mm 3 mps 745 mmHg 44%
15:00 +33°C° 0 mm 3 mps 745 mmHg 48%
16:00 +31°C° 0 mm 3 mps 745 mmHg 53%
17:00 +31°C° 0 mm 3 mps 745 mmHg 57%
18:00 +29°C° 0 mm 3 mps 745 mmHg 65%
19:00 +27°C° 0 mm 3 mps 745 mmHg 74%
20:00 +25°C° 0 mm 3 mps 745 mmHg 82%
21:00 +24°C° 0 mm 3 mps 745 mmHg 86%
22:00 +22°C° 0 mm 3 mps 745 mmHg 90%
23:00 +21°C° 0 mm 2 mps 745 mmHg 94%

23 June, Wednesday

Time Temperature Precipitation Wind Pressure Humidity
00:00 +21°C° 0 mm 2 mps 746 mmHg 94%
01:00 +21°C° 0 mm 2 mps 746 mmHg 95%
02:00 +20°C° 0 mm 2 mps 746 mmHg 96%
03:00 +21°C° 0 mm 2 mps 746 mmHg 95%
04:00 +21°C° 0 mm 2 mps 746 mmHg 94%
05:00 +23°C° 0 mm 2 mps 746 mmHg 93%
06:00 +24°C° 0 mm 2 mps 746 mmHg 85%
07:00 +26°C° 0 mm 2 mps 746 mmHg 78%
08:00 +28°C° 0 mm 2 mps 746 mmHg 71%
09:00 +29°C° 0 mm 3 mps 746 mmHg 64%
10:00 +30°C° 0 mm 3 mps 747 mmHg 58%
11:00 +33°C° 0 mm 3 mps 747 mmHg 52%
12:00 +33°C° 0 mm 3 mps 747 mmHg 49%
13:00 +34°C° 0 mm 3 mps 746 mmHg 45%
14:00 +34°C° 0 mm 3 mps 746 mmHg 42%
15:00 +34°C° 0 mm 3 mps 746 mmHg 47%
16:00 +32°C° 0 mm 2 mps 746 mmHg 51%
17:00 +32°C° 0 mm 2 mps 746 mmHg 55%
18:00 +29°C° 0 mm 2 mps 746 mmHg 62%
19:00 +27°C° 0 mm 2 mps 746 mmHg 69%
20:00 +25°C° 0 mm 3 mps 746 mmHg 75%
21:00 +24°C° 0 mm 2 mps 746 mmHg 78%
22:00 +23°C° 0 mm 2 mps 746 mmHg 81%
23:00 +21°C° 0 mm 2 mps 746 mmHg 83%

24 June, Thursday

Time Temperature Precipitation Wind Pressure Humidity
00:00 +21°C° 0 mm 2 mps 746 mmHg 85%
01:00 +20°C° 0 mm 2 mps 746 mmHg 87%
02:00 +21°C° 0 mm 1 mps 746 mmHg 90%
03:00 +21°C° 0 mm 1 mps 746 mmHg 88%
04:00 +22°C° 0 mm 1 mps 746 mmHg 86%
05:00 +22°C° 0 mm 1 mps 746 mmHg 84%
06:00 +24°C° 0 mm 1 mps 746 mmHg 77%
07:00 +26°C° 0 mm 2 mps 746 mmHg 71%
08:00 +28°C° 0 mm 2 mps 746 mmHg 65%
09:00 +29°C° 0 mm 2 mps 746 mmHg 59%
10:00 +30°C° 0 mm 2 mps 746 mmHg 53%
11:00 +32°C° 0 mm 1 mps 746 mmHg 47%
12:00 +32°C° 0 mm 1 mps 746 mmHg 44%
13:00 +33°C° 0 mm 1 mps 746 mmHg 42%
14:00 +33°C° 0 mm 1 mps 746 mmHg 39%
15:00 +33°C° 0 mm 1 mps 745 mmHg 44%
16:00 +33°C° 0 mm 1 mps 745 mmHg 48%
17:00 +33°C° 0 mm 1 mps 745 mmHg 53%
18:00 +31°C° 0 mm 1 mps 745 mmHg 60%
19:00 +28°C° 0 mm 1 mps 744 mmHg 67%
20:00 +26°C° 0 mm 2 mps 744 mmHg 74%
21:00 +25°C° 0 mm 2 mps 744 mmHg 76%
22:00 +25°C° 0 mm 2 mps 744 mmHg 79%
23:00 +24°C° 0 mm 2 mps 744 mmHg 81%

25 June, Friday

Time Temperature Precipitation Wind Pressure Humidity
00:00 +23°C° 0 mm 2 mps 744 mmHg 84%
01:00 +23°C° 0 mm 2 mps 744 mmHg 86%
02:00 +23°C° 0 mm 2 mps 744 mmHg 88%
03:00 +23°C° 0 mm 2 mps 744 mmHg 87%
04:00 +23°C° 0 mm 2 mps 744 mmHg 86%
05:00 +24°C° 0 mm 2 mps 743 mmHg 85%
06:00 +26°C° 0 mm 2 mps 743 mmHg 79%
07:00 +27°C° 0 mm 2 mps 743 mmHg 72%
08:00 +29°C° 0 mm 2 mps 744 mmHg 65%
09:00 +30°C° 0 mm 2 mps 743 mmHg 60%
10:00 +31°C° 0 mm 3 mps 743 mmHg 54%
11:00 +34°C° 0 mm 3 mps 743 mmHg 49%
12:00 +34°C° 0 mm 3 mps 743 mmHg 46%
13:00 +35°C° 0 mm 3 mps 743 mmHg 43%
14:00 +35°C° 0 mm 3 mps 742 mmHg 40%
15:00 +34°C° 0 mm 3 mps 742 mmHg 45%
16:00 +33°C° 0 mm 3 mps 741 mmHg 50%
17:00 +31°C° 0 mm 3 mps 741 mmHg 55%
18:00 +28°C° 0.8 mm 3 mps 741 mmHg 67%
19:00 +24°C° 0.8 mm 3 mps 741 mmHg 79%
20:00 +20°C° 0.8 mm 3 mps 742 mmHg 91%
21:00 +19°C° 0.5 mm 3 mps 742 mmHg 92%
22:00 +18°C° 0.5 mm 3 mps 741 mmHg 93%
23:00 +18°C° 0.5 mm 2 mps 741 mmHg 93%
Show more